| time (UTC) | temp F | wind direction | speed knots | gust knots | rain 1hr in | rain 24hr in | rain mn in | humidity % | barometer mb |
| 20260507031035 | 42 | 0 | 0.0 | 1.7 | 0.00 | 0.70 | 0.66 | 94 | 1012.2 |
| 20260507030535 | 42 | 0 | 0.0 | 2.6 | 0.00 | 0.70 | 0.66 | 94 | 1012.3 |
| 20260507030049 | 42 | 0 | 0.0 | 2.6 | 0.00 | 0.70 | 0.66 | 94 | 1012.4 |
| 20260507025534 | 42 | 0 | 0.0 | 2.6 | 0.00 | 0.77 | 0.66 | 94 | 1012.5 |
| 20260507025035 | 42 | 288 | 0.0 | 2.6 | 0.00 | 0.77 | 0.66 | 94 | 1012.6 |
| 20260507024545 | 42 | 0 | 0.9 | 3.5 | 0.00 | 0.77 | 0.66 | 94 | 1012.6 |
| 20260507024036 | 42 | 0 | 0.0 | 3.5 | 0.00 | 0.77 | 0.66 | 94 | 1012.4 |
| 20260507023535 | 42 | 300 | 0.0 | 3.5 | 0.00 | 0.77 | 0.66 | 93 | 1012.4 |
| 20260507023046 | 42 | 256 | 0.9 | 3.5 | 0.00 | 0.77 | 0.66 | 94 | 1012.4 |
| 20260507022535 | 43 | 0 | 0.0 | 0.9 | 0.00 | 0.77 | 0.66 | 93 | 1012.3 |
| 20260507022035 | 43 | 0 | 0.0 | 2.6 | 0.00 | 0.77 | 0.66 | 93 | 1012.4 |
| 20260507021545 | 43 | 0 | 0.0 | 3.5 | 0.00 | 0.77 | 0.66 | 93 | 1012.5 |
| 20260507021035 | 43 | 296 | 0.0 | 3.5 | 0.00 | 0.77 | 0.66 | 93 | 1012.5 |
| 20260507020536 | 43 | 0 | 0.0 | 1.7 | 0.00 | 0.77 | 0.66 | 93 | 1012.5 |
| 20260507020039 | 43 | 0 | 0.0 | 3.5 | 0.00 | 0.77 | 0.66 | 92 | 1012.5 |
| 20260507015534 | 44 | 0 | 0.9 | 4.3 | 0.00 | 0.82 | 0.66 | 91 | 1012.4 |
| 20260507015035 | 44 | 347 | 0.0 | 5.2 | 0.00 | 0.82 | 0.66 | 92 | 1012.4 |
| 20260507014550 | 44 | 291 | 0.9 | 6.1 | 0.00 | 0.82 | 0.66 | 92 | 1012.5 |
| 20260507014035 | 44 | 320 | 0.0 | 6.1 | 0.00 | 0.82 | 0.66 | 92 | 1012.5 |
| 20260507013535 | 44 | 345 | 1.7 | 6.1 | 0.00 | 0.82 | 0.66 | 93 | 1012.5 |
| 20260507013108 | 45 | 287 | 1.7 | 6.1 | 0.00 | 0.82 | 0.66 | 93 | 1012.6 |
| 20260507012535 | 45 | 98 | 0.0 | 1.7 | 0.00 | 0.82 | 0.66 | 94 | 1012.4 |
| 20260507012034 | 45 | 0 | 0.0 | 1.7 | 0.00 | 0.82 | 0.66 | 94 | 1012.3 |
| 20260507011545 | 45 | 0 | 0.0 | 0.9 | 0.00 | 0.82 | 0.66 | 93 | 1012.3 |
| 20260507011035 | 45 | 0 | 0.0 | 0.0 | 0.00 | 0.82 | 0.66 | 93 | 1012.1 |
| 20260507010535 | 45 | 0 | 0.0 | 0.0 | 0.00 | 0.82 | 0.66 | 93 | 1012.2 |
| 20260507010044 | 45 | 0 | 0.0 | 0.0 | 0.00 | 0.82 | 0.66 | 93 | 1012.0 |
| 20260507005535 | 45 | 0 | 0.0 | 0.0 | 0.00 | 0.91 | 0.66 | 92 | 1011.9 |
| 20260507005034 | 45 | 0 | 0.0 | 0.0 | 0.00 | 0.91 | 0.66 | 92 | 1011.9 |
| 20260507004550 | 45 | 0 | 0.0 | 0.0 | 0.00 | 0.91 | 0.66 | 92 | 1011.7 |
| 20260507004035 | 45 | 0 | 0.0 | 0.0 | 0.00 | 0.91 | 0.66 | 92 | 1011.6 |
| 20260507003535 | 45 | 0 | 0.0 | 2.6 | 0.00 | 0.91 | 0.66 | 92 | 1011.7 |
| 20260507003040 | 45 | 0 | 0.0 | 2.6 | 0.00 | 0.91 | 0.66 | 92 | 1011.7 |
| 20260507002535 | 45 | 101 | 0.0 | 2.6 | 0.00 | 0.91 | 0.66 | 91 | 1011.7 |
| 20260507002036 | 45 | 0 | 0.0 | 0.0 | 0.00 | 0.91 | 0.66 | 92 | 1011.5 |
| 20260507001604 | 45 | 0 | 0.0 | 0.0 | 0.00 | 0.91 | 0.66 | 91 | 1011.5 |
| 20260507001035 | 46 | 0 | 0.0 | 0.0 | 0.00 | 0.91 | 0.66 | 91 | 1011.4 |
| 20260507000535 | 46 | 0 | 0.0 | 0.0 | 0.00 | 0.91 | 0.66 | 91 | 1011.4 |
| 20260507000039 | 46 | 0 | 0.0 | 0.0 | 0.00 | 0.91 | 0.66 | 91 | 1011.3 |
| 20260506235537 | 46 | 0 | 0.0 | 0.0 | 0.00 | 0.95 | 0.66 | 91 | 1011.4 |
| 20260506235035 | 46 | 0 | 0.0 | 0.0 | 0.00 | 0.95 | 0.66 | 90 | 1011.4 |
| 20260506234537 | 46 | 0 | 0.0 | 0.0 | 0.00 | 0.95 | 0.66 | 90 | 1011.2 |
| 20260506234036 | 46 | 0 | 0.0 | 0.0 | 0.00 | 0.95 | 0.66 | 90 | 1011.1 |
| 20260506233537 | 46 | 0 | 0.0 | 0.0 | 0.00 | 0.95 | 0.66 | 90 | 1011.2 |
| 20260506233047 | 46 | 0 | 0.0 | 0.0 | 0.00 | 0.95 | 0.66 | 89 | 1011.1 |
| 20260506232535 | 46 | 0 | 0.0 | 0.0 | 0.00 | 0.95 | 0.66 | 89 | 1011.0 |
| 20260506232035 | 46 | 0 | 0.0 | 0.0 | 0.00 | 0.95 | 0.66 | 89 | 1010.9 |
| 20260506231547 | 46 | 0 | 0.0 | 0.0 | 0.00 | 0.95 | 0.66 | 89 | 1010.9 |
| 20260506231035 | 46 | 0 | 0.0 | 0.0 | 0.00 | 0.95 | 0.66 | 89 | 1011.0 |
| 20260506230535 | 46 | 0 | 0.0 | 0.0 | 0.00 | 0.95 | 0.66 | 89 | 1010.9 |
| 20260506230042 | 46 | 0 | 0.0 | 0.0 | 0.00 | 0.95 | 0.66 | 89 | 1010.8 |
| 20260506225535 | 46 | 0 | 0.0 | 0.0 | 0.00 | 0.95 | 0.66 | 89 | 1010.7 |
| 20260506225035 | 46 | 0 | 0.0 | 0.0 | 0.00 | 0.95 | 0.66 | 89 | 1010.7 |
| 20260506224540 | 45 | 0 | 0.0 | 2.6 | 0.00 | 0.95 | 0.66 | 89 | 1010.6 |
| 20260506224034 | 45 | 0 | 0.0 | 2.6 | 0.00 | 0.95 | 0.66 | 88 | 1010.6 |
| 20260506223535 | 45 | 94 | 0.0 | 1.7 | 0.00 | 0.95 | 0.66 | 88 | 1010.7 |
| 20260506223102 | 46 | 0 | 0.0 | 0.0 | 0.00 | 0.95 | 0.66 | 88 | 1010.7 |
| 20260506222535 | 45 | 0 | 0.0 | 0.0 | 0.00 | 0.95 | 0.66 | 88 | 1010.5 |
| 20260506222036 | 46 | 0 | 0.0 | 0.0 | 0.00 | 0.95 | 0.66 | 88 | 1010.7 |
| 20260506221545 | 46 | 0 | 0.0 | 0.0 | 0.00 | 0.95 | 0.66 | 88 | 1010.7 |
| 20260506221035 | 46 | 0 | 0.0 | 0.0 | 0.00 | 0.95 | 0.66 | 87 | 1010.7 |
| 20260506220535 | 46 | 0 | 0.0 | 0.0 | 0.00 | 0.95 | 0.66 | 87 | 1010.8 |
| 20260506220045 | 45 | 0 | 0.0 | 0.0 | 0.00 | 0.95 | 0.66 | 87 | 1010.9 |
| 20260506215535 | 45 | 0 | 0.0 | 0.0 | 0.00 | 0.95 | 0.66 | 87 | 1010.9 |
| 20260506215035 | 45 | 0 | 0.0 | 0.0 | 0.00 | 0.95 | 0.66 | 87 | 1010.9 |
| 20260506214544 | 45 | 0 | 0.0 | 2.6 | 0.00 | 0.95 | 0.66 | 86 | 1010.9 |
| 20260506214034 | 45 | 0 | 0.0 | 2.6 | 0.00 | 0.95 | 0.66 | 86 | 1010.8 |
| 20260506213534 | 45 | 304 | 0.0 | 2.6 | 0.00 | 0.95 | 0.66 | 87 | 1010.6 |
| 20260506213042 | 45 | 0 | 0.0 | 2.6 | 0.00 | 0.95 | 0.66 | 87 | 1010.7 |
| 20260506212535 | 45 | 0 | 0.0 | 2.6 | 0.00 | 0.95 | 0.66 | 86 | 1010.6 |
| 20260506212036 | 45 | 307 | 0.0 | 1.7 | 0.00 | 0.95 | 0.66 | 87 | 1010.6 |
| 20260506211541 | 45 | 0 | 0.0 | 1.7 | 0.00 | 0.95 | 0.66 | 87 | 1010.5 |
| 20260506211036 | 45 | 0 | 0.0 | 1.7 | 0.00 | 0.95 | 0.66 | 87 | 1010.4 |
| 20260506210536 | 45 | 0 | 0.0 | 2.6 | 0.00 | 0.95 | 0.66 | 86 | 1010.4 |
| 20260506210041 | 45 | 0 | 0.0 | 2.6 | 0.00 | 0.95 | 0.66 | 87 | 1010.5 |
| 20260506205534 | 45 | 0 | 0.0 | 2.6 | 0.00 | 0.95 | 0.66 | 87 | 1010.6 |
| 20260506205034 | 45 | 0 | 0.0 | 1.7 | 0.00 | 0.95 | 0.66 | 87 | 1010.5 |
| 20260506204545 | 45 | 0 | 0.0 | 2.6 | 0.00 | 0.95 | 0.66 | 87 | 1010.6 |
| 20260506204034 | 45 | 0 | 0.9 | 2.6 | 0.00 | 0.95 | 0.66 | 87 | 1010.6 |
| 20260506203534 | 45 | 213 | 0.0 | 2.6 | 0.00 | 0.95 | 0.66 | 87 | 1010.5 |
| 20260506203047 | 45 | 283 | 0.9 | 2.6 | 0.00 | 0.95 | 0.66 | 87 | 1010.6 |
| 20260506202534 | 45 | 344 | 0.9 | 5.2 | 0.00 | 0.95 | 0.66 | 87 | 1010.5 |
| 20260506202034 | 45 | 330 | 0.9 | 6.1 | 0.00 | 0.95 | 0.66 | 87 | 1010.5 |
| 20260506201545 | 45 | 293 | 0.9 | 6.1 | 0.00 | 0.95 | 0.66 | 87 | 1010.5 |
| 20260506201038 | 45 | 348 | 0.9 | 4.3 | 0.00 | 0.95 | 0.66 | 87 | 1010.5 |
| 20260506200535 | 45 | 282 | 1.7 | 5.2 | 0.00 | 0.95 | 0.66 | 88 | 1010.4 |
| 20260506200112 | 45 | 286 | 1.7 | 7.0 | 0.00 | 0.95 | 0.66 | 88 | 1010.2 |
| 20260506195535 | 45 | 243 | 0.0 | 7.0 | 0.00 | 0.95 | 0.66 | 89 | 1010.2 |
| 20260506195034 | 45 | 303 | 1.7 | 7.0 | 0.00 | 0.95 | 0.66 | 90 | 1010.3 |
| 20260506194555 | 45 | 0 | 0.0 | 4.3 | 0.00 | 0.95 | 0.66 | 90 | 1010.3 |
| 20260506194035 | 44 | 275 | 1.7 | 4.3 | 0.00 | 0.95 | 0.66 | 89 | 1010.4 |
| 20260506193538 | 44 | 280 | 0.0 | 7.0 | 0.00 | 0.95 | 0.66 | 90 | 1010.4 |
| 20260506193041 | 44 | 317 | 0.9 | 7.0 | 0.00 | 0.95 | 0.66 | 90 | 1010.4 |
| 20260506192535 | 44 | 290 | 0.0 | 4.3 | 0.00 | 0.95 | 0.66 | 91 | 1010.5 |
| 20260506192037 | 44 | 273 | 1.7 | 7.8 | 0.00 | 0.95 | 0.66 | 91 | 1010.5 |
| 20260506191548 | 44 | 245 | 0.9 | 7.8 | 0.00 | 0.95 | 0.66 | 92 | 1010.5 |
| 20260506191035 | 44 | 323 | 1.7 | 7.8 | 0.00 | 0.95 | 0.66 | 92 | 1010.4 |
| 20260506190534 | 44 | 307 | 2.6 | 7.8 | 0.00 | 0.95 | 0.66 | 92 | 1010.4 |
| 20260506190045 | 44 | 324 | 1.7 | 6.1 | 0.00 | 0.95 | 0.66 | 93 | 1010.3 |
| 20260506185627 | 44 | 0 | 0.9 | 7.0 | 0.00 | 0.95 | 0.66 | 94 | 1010.3 |
| 20260506185034 | 44 | 313 | 0.9 | 7.0 | 0.00 | 0.95 | 0.66 | 95 | 1010.4 |
| 20260506184548 | 44 | 327 | 0.9 | 7.0 | 0.00 | 0.95 | 0.66 | 95 | 1010.3 |
| 20260506184036 | 43 | 0 | 0.9 | 7.0 | 0.00 | 0.95 | 0.66 | 95 | 1010.4 |
| 20260506183535 | 43 | 284 | 1.7 | 7.0 | 0.00 | 0.95 | 0.66 | 95 | 1010.3 |
| 20260506183046 | 43 | 0 | 0.9 | 7.0 | 0.00 | 0.95 | 0.66 | 95 | 1010.4 |
| 20260506182534 | 43 | 304 | 0.9 | 7.0 | 0.00 | 0.95 | 0.66 | 95 | 1010.5 |
| 20260506182034 | 43 | 315 | 1.7 | 7.0 | 0.00 | 0.95 | 0.66 | 95 | 1010.5 |
| 20260506181539 | 43 | 340 | 1.7 | 8.7 | 0.00 | 0.95 | 0.66 | 95 | 1010.6 |
| 20260506181035 | 43 | 0 | 0.9 | 8.7 | 0.00 | 0.95 | 0.66 | 95 | 1010.4 |
| 20260506180536 | 43 | 322 | 1.7 | 8.7 | 0.00 | 0.95 | 0.66 | 95 | 1010.3 |
| 20260506180052 | 43 | 282 | 1.7 | 6.1 | 0.00 | 0.95 | 0.66 | 95 | 1010.1 |
| 20260506175535 | 43 | 339 | 0.9 | 7.0 | 0.00 | 0.95 | 0.66 | 95 | 1010.0 |
| 20260506175034 | 43 | 278 | 0.0 | 7.0 | 0.00 | 0.95 | 0.66 | 96 | 1010.0 |
| 20260506174547 | 43 | 287 | 1.7 | 7.0 | 0.00 | 0.95 | 0.66 | 96 | 1009.8 |
| 20260506174037 | 43 | 288 | 0.9 | 6.1 | 0.00 | 0.95 | 0.66 | 96 | 1009.7 |
| 20260506173535 | 43 | 275 | 0.9 | 7.0 | 0.00 | 0.95 | 0.66 | 96 | 1009.6 |
| 20260506173048 | 43 | 0 | 2.6 | 7.0 | 0.00 | 0.95 | 0.66 | 96 | 1009.5 |
| 20260506172535 | 43 | 312 | 2.6 | 7.0 | 0.00 | 0.95 | 0.66 | 96 | 1009.5 |
| 20260506172034 | 43 | 293 | 1.7 | 5.2 | 0.00 | 0.95 | 0.66 | 96 | 1009.5 |
| 20260506171551 | 43 | 341 | 1.7 | 3.5 | 0.00 | 0.95 | 0.66 | 96 | 1009.6 |
| 20260506171034 | 44 | 290 | 0.0 | 7.8 | 0.00 | 0.95 | 0.66 | 96 | 1009.6 |
| 20260506170534 | 43 | 292 | 0.9 | 7.8 | 0.00 | 0.95 | 0.66 | 96 | 1009.7 |
| 20260506170042 | 43 | 332 | 0.9 | 5.2 | 0.00 | 0.95 | 0.66 | 96 | 1009.6 |
| 20260506165534 | 43 | 0 | 0.0 | 7.8 | 0.00 | 0.95 | 0.66 | 96 | 1009.5 |
| 20260506165035 | 43 | 340 | 0.9 | 7.8 | 0.00 | 0.95 | 0.66 | 97 | 1009.4 |
| 20260506164539 | 43 | 293 | 1.7 | 5.2 | 0.00 | 0.95 | 0.66 | 96 | 1009.5 |
| 20260506164035 | 44 | 360 | 0.9 | 3.5 | 0.00 | 0.95 | 0.66 | 96 | 1009.3 |
| 20260506163531 | 44 | 336 | 0.0 | 4.3 | 0.00 | 0.95 | 0.66 | 97 | 1009.2 |
| 20260506163050 | 43 | 287 | 0.9 | 4.3 | 0.00 | 0.95 | 0.66 | 97 | 1009.2 |
| 20260506162534 | 43 | 0 | 0.0 | 5.2 | 0.00 | 0.95 | 0.66 | 97 | 1009.4 |
| 20260506162036 | 43 | 309 | 0.9 | 5.2 | 0.00 | 0.95 | 0.66 | 96 | 1009.5 |
| 20260506161553 | 43 | 290 | 1.7 | 4.3 | 0.00 | 0.95 | 0.66 | 97 | 1009.5 |
| 20260506161034 | 43 | 298 | 0.9 | 8.7 | 0.00 | 0.95 | 0.66 | 97 | 1009.4 |
| 20260506160532 | 43 | 298 | 0.9 | 8.7 | 0.00 | 0.95 | 0.66 | 97 | 1009.5 |
| 20260506160046 | 43 | 0 | 2.6 | 8.7 | 0.00 | 0.95 | 0.66 | 97 | 1009.4 |
| 20260506155531 | 44 | 320 | 0.0 | 2.6 | 0.00 | 0.95 | 0.66 | 97 | 1009.4 |
| 20260506155032 | 43 | 0 | 0.0 | 3.5 | 0.00 | 0.95 | 0.66 | 97 | 1009.5 |
| 20260506154543 | 43 | 286 | 0.0 | 3.5 | 0.01 | 0.95 | 0.66 | 97 | 1009.6 |
| 20260506154039 | 43 | 288 | 0.0 | 2.6 | 0.01 | 0.95 | 0.66 | 97 | 1009.6 |
| 20260506153536 | 43 | 287 | 0.0 | 7.0 | 0.01 | 0.95 | 0.66 | 97 | 1009.6 |
| 20260506153043 | 43 | 0 | 0.9 | 7.0 | 0.01 | 0.95 | 0.66 | 97 | 1009.5 |
| 20260506152536 | 43 | 288 | 1.7 | 7.0 | 0.01 | 0.95 | 0.66 | 97 | 1009.4 |
| 20260506152036 | 43 | 207 | 0.0 | 3.5 | 0.01 | 0.95 | 0.66 | 97 | 1009.6 |
| 20260506151540 | 43 | 298 | 0.9 | 3.5 | 0.01 | 0.95 | 0.66 | 97 | 1009.6 |
| 20260506151035 | 43 | 302 | 0.9 | 4.3 | 0.01 | 0.95 | 0.66 | 97 | 1009.6 |
| 20260506150535 | 43 | 0 | 0.0 | 4.3 | 0.01 | 0.95 | 0.66 | 97 | 1009.5 |
| 20260506150047 | 43 | 258 | 0.0 | 4.3 | 0.01 | 0.95 | 0.66 | 97 | 1009.6 |
| 20260506145536 | 44 | 277 | 0.9 | 2.6 | 0.01 | 0.95 | 0.66 | 97 | 1009.4 |
| 20260506145035 | 43 | 265 | 0.9 | 2.6 | 0.01 | 0.95 | 0.66 | 97 | 1009.2 |
| 20260506144544 | 43 | 290 | 0.9 | 2.6 | 0.00 | 0.94 | 0.65 | 97 | 1008.9 |
| 20260506144035 | 43 | 0 | 0.0 | 2.6 | 0.00 | 0.94 | 0.65 | 97 | 1009.0 |
| 20260506143535 | 43 | 183 | 0.0 | 2.6 | 0.00 | 0.94 | 0.65 | 97 | 1009.0 |
| 20260506143044 | 43 | 0 | 0.9 | 2.6 | 0.00 | 0.94 | 0.65 | 97 | 1009.1 |
| 20260506142536 | 43 | 0 | 0.0 | 3.5 | 0.00 | 0.94 | 0.65 | 97 | 1009.0 |
| 20260506142036 | 43 | 0 | 0.9 | 3.5 | 0.00 | 0.94 | 0.65 | 97 | 1009.1 |
| 20260506141539 | 43 | 288 | 1.7 | 3.5 | 0.00 | 0.94 | 0.65 | 97 | 1008.9 |
| 20260506141036 | 44 | 250 | 0.0 | 2.6 | 0.00 | 0.94 | 0.65 | 97 | 1009.0 |
| 20260506140536 | 43 | 315 | 0.0 | 2.6 | 0.00 | 0.94 | 0.65 | 97 | 1009.1 |
| 20260506140044 | 44 | 0 | 0.0 | 3.5 | 0.01 | 0.94 | 0.65 | 97 | 1009.1 |
| 20260506135535 | 44 | 279 | 0.9 | 3.5 | 0.01 | 0.94 | 0.65 | 97 | 1009.2 |
| 20260506135035 | 44 | 267 | 0.0 | 2.6 | 0.01 | 0.94 | 0.65 | 97 | 1009.1 |
| 20260506134610 | 44 | 260 | 0.9 | 2.6 | 0.01 | 0.94 | 0.65 | 97 | 1008.9 |
| 20260506134035 | 44 | 0 | 0.0 | 0.9 | 0.01 | 0.94 | 0.65 | 97 | 1008.8 |
| 20260506133535 | 44 | 0 | 0.0 | 0.9 | 0.01 | 0.94 | 0.65 | 97 | 1008.9 |
| 20260506133048 | 43 | 0 | 0.0 | 2.6 | 0.01 | 0.94 | 0.65 | 97 | 1008.9 |
| 20260506132535 | 43 | 0 | 0.0 | 2.6 | 0.01 | 0.94 | 0.65 | 97 | 1008.9 |
| 20260506132035 | 43 | 0 | 0.9 | 2.6 | 0.02 | 0.94 | 0.65 | 97 | 1008.9 |
| 20260506131604 | 43 | 93 | 0.0 | 2.6 | 0.02 | 0.94 | 0.65 | 97 | 1009.1 |
| 20260506131035 | 43 | 88 | 0.0 | 2.6 | 0.02 | 0.94 | 0.65 | 97 | 1009.1 |
| 20260506130535 | 43 | 94 | 0.0 | 2.6 | 0.03 | 0.94 | 0.65 | 97 | 1009.1 |
| 20260506130045 | 43 | 0 | 0.0 | 1.7 | 0.02 | 0.93 | 0.64 | 97 | 1009.2 |
| 20260506125535 | 43 | 105 | 0.0 | 1.7 | 0.02 | 0.93 | 0.64 | 97 | 1009.2 |
| 20260506125036 | 43 | 0 | 0.0 | 0.9 | 0.02 | 0.93 | 0.64 | 97 | 1009.1 |
| 20260506124540 | 43 | 0 | 0.0 | 0.9 | 0.02 | 0.93 | 0.64 | 97 | 1009.1 |
| 20260506124037 | 43 | 0 | 0.0 | 1.7 | 0.03 | 0.93 | 0.64 | 97 | 1009.0 |
| 20260506123537 | 43 | 0 | 0.0 | 1.7 | 0.03 | 0.93 | 0.64 | 97 | 1009.1 |
| 20260506123045 | 43 | 0 | 0.0 | 1.7 | 0.03 | 0.93 | 0.64 | 97 | 1009.0 |
| 20260506122536 | 43 | 0 | 0.0 | 1.7 | 0.03 | 0.93 | 0.64 | 97 | 1009.3 |
| 20260506122036 | 43 | 0 | 0.0 | 2.6 | 0.02 | 0.92 | 0.63 | 97 | 1009.1 |
| 20260506121548 | 43 | 0 | 0.0 | 2.6 | 0.03 | 0.92 | 0.63 | 97 | 1009.2 |
| 20260506121035 | 43 | 104 | 0.0 | 1.7 | 0.03 | 0.92 | 0.63 | 97 | 1009.4 |
| 20260506120535 | 43 | 0 | 0.0 | 1.7 | 0.02 | 0.91 | 0.62 | 97 | 1009.3 |
| 20260506120047 | 43 | 0 | 0.0 | 1.7 | 0.03 | 0.91 | 0.62 | 97 | 1009.0 |
| 20260506115537 | 43 | 0 | 0.0 | 1.7 | 0.03 | 0.91 | 0.62 | 97 | 1008.9 |
| 20260506115036 | 43 | 0 | 0.0 | 1.7 | 0.04 | 0.91 | 0.62 | 97 | 1008.9 |
| 20260506114546 | 43 | 0 | 0.0 | 5.2 | 0.04 | 0.91 | 0.62 | 97 | 1008.7 |
| 20260506114036 | 43 | 0 | 0.9 | 5.2 | 0.04 | 0.90 | 0.61 | 97 | 1008.9 |
| 20260506113537 | 43 | 105 | 0.0 | 2.6 | 0.05 | 0.90 | 0.61 | 97 | 1008.8 |
| 20260506113041 | 43 | 0 | 0.0 | 5.2 | 0.05 | 0.90 | 0.61 | 97 | 1008.9 |
| 20260506112536 | 43 | 0 | 0.9 | 5.2 | 0.06 | 0.90 | 0.61 | 97 | 1009.0 |
| 20260506112035 | 43 | 0 | 0.0 | 1.7 | 0.07 | 0.90 | 0.61 | 97 | 1009.0 |
| 20260506111602 | 43 | 0 | 0.0 | 1.7 | 0.07 | 0.89 | 0.60 | 97 | 1009.0 |
| 20260506111035 | 43 | 0 | 0.0 | 1.7 | 0.08 | 0.89 | 0.60 | 97 | 1008.9 |
| 20260506110538 | 43 | 0 | 0.0 | 1.7 | 0.08 | 0.89 | 0.60 | 97 | 1009.0 |
| 20260506110045 | 43 | 0 | 0.0 | 2.6 | 0.08 | 0.88 | 0.58 | 97 | 1009.2 |
| 20260506105536 | 43 | 0 | 0.0 | 2.6 | 0.09 | 0.88 | 0.58 | 97 | 1009.1 |
| 20260506105036 | 43 | 0 | 0.0 | 1.7 | 0.08 | 0.87 | 0.58 | 97 | 1009.2 |
| 20260506104545 | 43 | 0 | 0.0 | 1.7 | 0.08 | 0.87 | 0.58 | 97 | 1009.2 |
| 20260506104035 | 43 | 0 | 0.0 | 2.6 | 0.07 | 0.86 | 0.57 | 97 | 1009.0 |
| 20260506103535 | 44 | 0 | 0.0 | 2.6 | 0.07 | 0.85 | 0.56 | 97 | 1009.4 |
| 20260506103044 | 44 | 0 | 0.0 | 2.6 | 0.07 | 0.85 | 0.56 | 97 | 1009.3 |
| 20260506102535 | 44 | 0 | 0.0 | 1.7 | 0.06 | 0.84 | 0.55 | 97 | 1009.3 |
| 20260506102037 | 44 | 0 | 0.0 | 1.7 | 0.05 | 0.83 | 0.54 | 97 | 1009.7 |
| 20260506101542 | 44 | 0 | 0.0 | 1.7 | 0.05 | 0.82 | 0.52 | 97 | 1009.2 |
| 20260506101036 | 44 | 0 | 0.0 | 1.7 | 0.04 | 0.81 | 0.52 | 97 | 1009.4 |
| 20260506100536 | 44 | 0 | 0.0 | 1.7 | 0.04 | 0.80 | 0.51 | 97 | 1009.0 |
| 20260506100038 | 44 | 0 | 0.0 | 1.7 | 0.04 | 0.80 | 0.51 | 97 | 1008.9 |
| 20260506095536 | 43 | 0 | 0.0 | 0.0 | 0.04 | 0.79 | 0.50 | 97 | 1008.9 |
| 20260506095040 | 43 | 0 | 0.0 | 1.7 | 0.04 | 0.79 | 0.50 | 97 | 1008.9 |
| 20260506094547 | 44 | 0 | 0.0 | 1.7 | 0.05 | 0.79 | 0.50 | 97 | 1008.7 |
| 20260506094039 | 43 | 97 | 0.0 | 1.7 | 0.06 | 0.79 | 0.50 | 97 | 1008.7 |
| 20260506093535 | 44 | 97 | 0.0 | 1.7 | 0.06 | 0.78 | 0.49 | 97 | 1008.5 |
| 20260506093052 | 44 | 0 | 0.0 | 1.7 | 0.06 | 0.78 | 0.49 | 97 | 1008.6 |
| 20260506092535 | 44 | 0 | 0.0 | 0.0 | 0.08 | 0.78 | 0.49 | 97 | 1008.6 |
| 20260506092037 | 44 | 0 | 0.0 | 0.9 | 0.09 | 0.78 | 0.49 | 97 | 1008.7 |
| 20260506091545 | 44 | 0 | 0.0 | 1.7 | 0.09 | 0.77 | 0.48 | 97 | 1008.8 |
| 20260506091036 | 44 | 0 | 0.0 | 1.7 | 0.10 | 0.77 | 0.48 | 97 | 1008.8 |
| 20260506090536 | 44 | 97 | 0.9 | 1.7 | 0.10 | 0.76 | 0.47 | 97 | 1008.5 |
| 20260506090044 | 44 | 0 | 0.0 | 1.7 | 0.11 | 0.76 | 0.47 | 97 | 1008.9 |
| 20260506085535 | 43 | 98 | 0.0 | 1.7 | 0.11 | 0.75 | 0.46 | 97 | 1009.0 |
| 20260506085036 | 44 | 0 | 0.0 | 1.7 | 0.11 | 0.74 | 0.45 | 97 | 1009.2 |
| 20260506084542 | 44 | 92 | 0.0 | 2.6 | 0.11 | 0.74 | 0.45 | 97 | 1009.4 |
| 20260506084036 | 44 | 0 | 0.0 | 2.6 | 0.11 | 0.73 | 0.44 | 97 | 1009.6 |
| 20260506083536 | 44 | 0 | 0.0 | 2.6 | 0.10 | 0.72 | 0.43 | 97 | 1009.7 |
| 20260506083108 | 44 | 0 | 0.0 | 0.0 | 0.11 | 0.72 | 0.43 | 97 | 1009.7 |
| 20260506082536 | 44 | 0 | 0.0 | 0.0 | 0.09 | 0.70 | 0.41 | 97 | 1009.5 |
| 20260506082035 | 43 | 0 | 0.0 | 0.0 | 0.08 | 0.69 | 0.40 | 97 | 1009.7 |
| 20260506081546 | 43 | 0 | 0.0 | 0.0 | 0.08 | 0.68 | 0.39 | 97 | 1009.4 |
| 20260506081036 | 43 | 0 | 0.0 | 0.0 | 0.08 | 0.67 | 0.38 | 97 | 1009.3 |
| 20260506080538 | 43 | 0 | 0.0 | 0.0 | 0.08 | 0.66 | 0.37 | 97 | 1009.5 |
| 20260506073046 | 44 | 0 | 0.0 | 3.5 | 0.11 | 0.62 | 0.32 | 97 | 1009.2 |
| 20260506072535 | 44 | 132 | 0.0 | 3.5 | 0.11 | 0.62 | 0.32 | 97 | 1009.4 |
| 20260506072035 | 44 | 0 | 0.0 | 6.1 | 0.11 | 0.61 | 0.31 | 97 | 1009.4 |
| 20260506071540 | 45 | 0 | 0.0 | 6.1 | 0.12 | 0.61 | 0.31 | 96 | 1009.3 |
| 20260506071035 | 45 | 275 | 0.0 | 5.2 | 0.11 | 0.60 | 0.30 | 96 | 1009.4 |
| 20260506070536 | 46 | 61 | 1.7 | 5.2 | 0.11 | 0.58 | 0.29 | 96 | 1009.4 |
| 20260506062035 | 47 | 0 | 0.0 | 2.6 | 0.09 | 0.50 | 0.20 | 97 | 1009.3 |
| 20260506061544 | 47 | 0 | 0.0 | 2.6 | 0.09 | 0.49 | 0.19 | 97 | 1009.5 |
| 20260506061035 | 47 | 0 | 0.0 | 2.6 | 0.10 | 0.49 | 0.19 | 97 | 1009.4 |
| 20260506060535 | 47 | 0 | 0.0 | 0.9 | 0.10 | 0.48 | 0.18 | 97 | 1009.4 |
| 20260506051035 | 47 | 105 | 0.0 | 2.6 | 0.07 | 0.39 | 0.09 | 96 | 1010.2 |
| 20260506050535 | 47 | 0 | 0.0 | 2.6 | 0.07 | 0.38 | 0.08 | 96 | 1010.3 |
| 20260506045036 | 47 | 95 | 1.7 | 5.2 | 0.07 | 0.36 | 0.06 | 96 | 1010.5 |
| 20260506044546 | 47 | 98 | 0.9 | 2.6 | 0.07 | 0.35 | 0.05 | 97 | 1009.8 |
| 20260506044035 | 47 | 98 | 0.0 | 3.5 | 0.06 | 0.34 | 0.04 | 97 | 1010.2 |
| 20260506043537 | 47 | 0 | 0.9 | 3.5 | 0.05 | 0.33 | 0.03 | 97 | 1010.3 |
| 20260506043043 | 47 | 99 | 0.9 | 2.6 | 0.05 | 0.33 | 0.03 | 96 | 1010.4 |
| 20260506042535 | 47 | 0 | 0.0 | 1.7 | 0.05 | 0.33 | 0.03 | 96 | 1010.3 |
| 20260506042035 | 47 | 0 | 0.0 | 1.7 | 0.04 | 0.32 | 0.02 | 96 | 1010.6 |
| 20260506041541 | 47 | 103 | 0.0 | 0.0 | 0.04 | 0.32 | 0.02 | 96 | 1010.6 |
| 20260506041034 | 47 | 0 | 0.0 | 0.0 | 0.05 | 0.32 | 0.02 | 96 | 1010.5 |
| 20260506040535 | 47 | 0 | 0.0 | 0.9 | 0.04 | 0.31 | 0.01 | 96 | 1010.3 |
| 20260506040050 | 47 | 0 | 0.0 | 0.9 | 0.04 | 0.30 | 0.00 | 96 | 1010.6 |
| 20260506035536 | 47 | 99 | 0.0 | 0.0 | 0.04 | 0.30 | 0.30 | 96 | 1010.4 |
| 20260506035037 | 47 | 0 | 0.0 | 0.0 | 0.04 | 0.29 | 0.29 | 96 | 1009.9 |
| 20260506034538 | 47 | 0 | 0.0 | 0.0 | 0.03 | 0.28 | 0.28 | 96 | 1010.3 |
| 20260506034036 | 47 | 0 | 0.0 | 1.7 | 0.04 | 0.28 | 0.28 | 96 | 1010.1 |
| 20260506033535 | 47 | 0 | 0.0 | 1.7 | 0.05 | 0.28 | 0.28 | 96 | 1009.8 |
| 20260506033046 | 47 | 99 | 0.0 | 1.7 | 0.06 | 0.28 | 0.28 | 96 | 1010.1 |
| 20260506032535 | 47 | 0 | 0.0 | 2.6 | 0.07 | 0.28 | 0.28 | 96 | 1010.1 |
| 20260506032035 | 47 | 0 | 0.0 | 2.6 | 0.07 | 0.28 | 0.28 | 96 | 1009.9 |
| 20260506031544 | 47 | 99 | 0.9 | 2.6 | 0.08 | 0.28 | 0.28 | 96 | 1010.2 |